This demonstration page uses our WeatherBlox Daily Observations layout. Learn more.

Hourly Observations for October 25, 2020

Temp ( °F °C ) Dew Point ( °F °C ) Humidity (%) Winds ( mph kmh ) Pressure ( in mb ) Visibility ( mi km ) Precip ( " mm )
12:15 am 00:15 Cloudy 52 11 43 6 72 72 N 7 11 30.13 1020 10 16.0934 0 0
12:35 am 00:35 Cloudy 52 11 43 6 72 72 N 7 11 30.13 1020 10 16.0934 0 0
12:55 am 00:55 Cloudy 52 11 43 6 72 72 N 5 7 30.13 1020 10 16.0934 0 0
1:15 am 01:15 Cloudy 52 11 41 5 67 67 NNE 7 11 30.13 1020 10 16.0934 0 0
1:35 am 01:35 Cloudy 52 11 43 6 72 72 N 5 7 30.13 1020 10 16.0934 0 0
1:55 am 01:55 Cloudy 52 11 43 6 72 72 N 6 9 30.13 1020 10 16.0934 0 0
2:15 am 02:15 Cloudy 52 11 43 6 72 72 NNE 5 7 30.13 1020 10 16.0934 0 0
2:35 am 02:35 Cloudy 52 11 43 6 72 72 NNE 8 13 30.13 1020 10 16.0934 0 0
2:55 am 02:55 Cloudy 52 11 41 5 67 67 NE 7 11 30.14 1021 10 16.0934 0 0
3:15 am 03:15 Cloudy 50 10 41 5 71 71 NNE 9 15 30.14 1021 10 16.0934 0 0
3:35 am 03:35 Cloudy 50 10 37 3 62 62 NNE 7 11 30.15 1021 10 16.0934 0 0
3:55 am 03:55 Cloudy 50 10 39 4 67 67 NE 6 9 30.16 1021 10 16.0934 0 0
4:15 am 04:15 Cloudy 50 10 39 4 67 67 NNE 7 11 30.16 1021 10 16.0934 0 0
4:35 am 04:35 Cloudy 50 10 37 3 62 62 NNE 12 19 30.16 1021 10 16.0934 0 0
4:55 am 04:55 Cloudy 50 10 37 3 62 62 NNE 7 11 30.16 1021 10 16.0934 0 0
5:15 am 05:15 Cloudy 50 10 37 3 62 62 NE 6 9 30.17 1022 10 16.0934 0 0
5:35 am 05:35 Cloudy 48 9 37 3 66 66 NE 7 11 30.18 1022 10 16.0934 0 0
5:55 am 05:55 Cloudy 48 9 37 3 66 66 NE 9 15 30.18 1022 10 16.0934 0 0
6:15 am 06:15 Cloudy 48 9 37 3 66 66 NE 6 9 30.18 1022 10 16.0934 0 0
6:35 am 06:35 Cloudy 48 9 37 3 66 66 NNE 8 13 30.19 1022 10 16.0934 0 0
6:55 am 06:55 Cloudy 46 8 37 3 71 71 NE 6 9 30.19 1022 10 16.0934 0 0
7:15 am 07:15 Cloudy 46 8 39 4 76 76 NNE 9 15 30.2 1023 10 16.0934 0 0
7:35 am 07:35 Cloudy 46 8 39 4 76 76 NE 8 13 30.2 1023 10 16.0934 0 0
7:55 am 07:55 Cloudy 46 8 39 4 76 76 NE 5 7 30.21 1023 10 16.0934 0 0
8:15 am 08:15 Cloudy 46 8 39 4 76 76 NNE 6 9 30.22 1023 10 16.0934 0 0
8:35 am 08:35 Cloudy 46 8 41 5 82 82 NNE 5 7 30.23 1024 10 16.0934 0 0
8:55 am 08:55 Cloudy 45 7 41 5 87 87 NNE 8 13 30.24 1024 10 16.0934 0 0
9:15 am 09:15 Cloudy 45 7 41 5 87 87 N 7 11 30.25 1024 7 11.26538 0 0
9:35 am 09:35 Cloudy 43 6 41 5 93 93 N 6 9 30.25 1024 7 11.26538 0 0
9:55 am 09:55 Cloudy 43 6 41 5 93 93 NNE 5 7 30.26 1025 7 11.26538 0 0
10:15 am 10:15 Cloudy 43 6 41 5 93 93 NNE 5 7 30.26 1025 10 16.0934 0 0
10:35 am 10:35 Cloudy 43 6 43 6 100 100 NE 6 9 30.26 1025 10 16.0934 0 0
10:55 am 10:55 Cloudy 43 6 43 6 100 100 NE 6 9 30.26 1025 5 8.0467 0 0
11:15 am 11:15 Cloudy 43 6 43 6 100 100 NE 5 7 30.26 1025 7 11.26538 0 0
11:35 am 11:35 Cloudy 43 6 43 6 100 100 NNE 6 9 30.26 1025 7 11.26538 0 0
11:55 am 11:55 Cloudy 43 6 43 6 100 100 NE 7 11 30.27 1025 10 16.0934 0 0
12:15 pm 12:15 Cloudy 43 6 43 6 100 100 NNE 7 11 30.27 1025 10 16.0934 0 0
12:35 pm 12:35 Cloudy 43 6 43 6 100 100 NE 7 11 30.26 1025 7 11.26538 0 0
12:55 pm 12:55 Cloudy 43 6 43 6 100 100 NE 7 11 30.25 1024 10 16.0934 0 0
1:15 pm 13:15 Cloudy 43 6 43 6 100 100 NE 7 11 30.25 1024 10 16.0934 0 0
1:35 pm 13:35 Cloudy 43 6 41 5 93 93 NNE 6 9 30.24 1024 10 16.0934 0 0
1:55 pm 13:55 Cloudy 45 7 43 6 93 93 NNE 5 7 30.24 1024 10 16.0934 0 0
2:15 pm 14:15 Cloudy 45 7 43 6 93 93 NE 7 11 30.23 1024 10 16.0934 0 0
2:35 pm 14:35 Cloudy 45 7 43 6 93 93 ENE 5 7 30.22 1023 10 16.0934 0 0
2:55 pm 14:55 Cloudy 45 7 43 6 93 93 NNE 5 7 30.22 1023 10 16.0934 0 0
3:15 pm 15:15 Cloudy 45 7 43 6 93 93 NE 5 7 30.22 1023 10 16.0934 0 0
3:35 pm 15:35 Cloudy 45 7 43 6 93 93 NE 6 9 30.22 1023 10 16.0934 0 0
3:55 pm 15:55 Cloudy 45 7 43 6 93 93 NE 3 6 30.21 1023 10 16.0934 0 0
4:15 pm 16:15 Cloudy 45 7 43 6 93 93 NNE 6 9 30.21 1023 7 11.26538 0 0
4:35 pm 16:35 Cloudy 43 6 43 6 100 100 NNE 3 6 30.21 1023 5 8.0467 0 0
4:55 pm 16:55 Cloudy 43 6 43 6 100 100 NNE 5 7 30.22 1023 10 16.0934 0 0
5:15 pm 17:15 Cloudy 43 6 43 6 100 100 NNE 5 7 30.22 1023 4 6.43736 0 0
5:35 pm 17:35 Cloudy 43 6 43 6 100 100 NNE 5 7 30.22 1023 3 4.82802 0 0
5:55 pm 17:55 Cloudy 43 6 43 6 100 100 NNE 6 9 30.22 1023 3 4.82802 0 0
6:15 pm 18:15 Cloudy 43 6 43 6 100 100 NNE 6 9 30.22 1023 5 8.0467 0 0
6:35 pm 18:35 Cloudy 43 6 43 6 100 100 NNE 6 9 30.22 1023 5 8.0467 0 0
6:55 pm 18:55 Cloudy 43 6 43 6 100 100 NNE 6 9 30.23 1024 3 4.82802 0 0
7:15 pm 19:15 Cloudy 43 6 43 6 100 100 NNE 6 9 30.23 1024 2.5 4.02335 0 0
7:35 pm 19:35 Cloudy 43 6 43 6 100 100 NNE 6 9 30.24 1024 3 4.82802 0 0
7:55 pm 19:55 Cloudy 41 5 41 5 100 100 NE 6 9 30.24 1024 3 4.82802 0 0
8:15 pm 20:15 Cloudy 41 5 41 5 100 100 NNE 5 7 30.24 1024 3 4.82802 0 0
8:35 pm 20:35 Cloudy 41 5 41 5 100 100 NNE 5 7 30.23 1024 3 4.82802 0 0
8:55 pm 20:55 Cloudy 41 5 41 5 100 100 N 5 7 30.23 1024 3 4.82802 0 0
9:15 pm 21:15 Cloudy 41 5 41 5 100 100 NNE 5 7 30.23 1024 2.5 4.02335 0 0
9:35 pm 21:35 Cloudy 41 5 41 5 100 100 NE 5 7 30.24 1024 3 4.82802 0 0
9:55 pm 21:55 Cloudy 41 5 41 5 100 100 N 5 7 30.24 1024 2.5 4.02335 0 0
10:15 pm 22:15 Cloudy 41 5 41 5 100 100 Calm 30.25 1025 2 3.21868 0 0
10:35 pm 22:35 Cloudy 41 5 41 5 100 100 NE 3 6 30.25 1025 2.5 4.02335 0 0
10:55 pm 22:55 Cloudy 41 5 41 5 100 100 NE 8 13 30.23 1024 2 3.21868 0 0
11:15 pm 23:15 Cloudy 41 5 41 5 100 100 NNE 3 6 30.23 1024 4 6.43736 0 0
11:35 pm 23:35 Cloudy 41 5 41 5 100 100 NNE 6 9 30.24 1024 5 8.0467 0 0
11:55 pm 23:55 Cloudy 41 5 41 5 100 100 N 5 7 30.23 1024 7 11.26538 0 0

Powered by AerisWeather